Chicago DuPage, IL

4:42 PM CDT on September 21, 2017 (GMT -0500)
Du Page

Weather History for KDPA - April, 2013

Change the Weather History Date:

Monday, April 8, 2013

  Actual Average Record
Temperature  
Mean Temperature 53 °F 47 °F  
Max Temperature 66 °F 58 °F 77 °F (2001)
Min Temperature 39 °F 35 °F 26 °F (2003)
Degree Days  
Heating Degree Days 12 18  
Month to date heating degree days 184 157  
Since 1 July heating degree days 5968 5748  
Cooling Degree Days 0 0  
Month to date cooling degree days 0 0  
Year to date cooling degree days 0 0  
Growing Degree Days 2 (Base 50)    
Moisture  
Dew Point 47 °F    
Average Humidity 78    
Maximum Humidity 100    
Minimum Humidity 59    
Precipitation  
Precipitation 0.39 in 0.09 in 1.06 in (1999)
Month to date precipitation 0.45 0.72  
Year to date precipitation 7.41 5.81  
Sea Level Pressure  
Sea Level Pressure 29.75 in    
Wind  
Wind Speed 14 mph (SSE)    
Max Wind Speed 38 mph    
Max Gust Speed 55 mph    
Visibility 8 miles    
Events Rain    
T = Trace of Precipitation, MM = Missing Value Source: NWS Daily Summary

Daily Weather History Graph

Daily Weather History Graph

Search for Another Location

Airport or City:

Trip Planner

Search our weather history database for the weather conditions in past years. The results will help you decide how hot, cold, wet, or windy it might be!

Date:

Astronomy

Apr. 08, 2013 Rise Set
Actual Time 6:23 AM CDT 7:26 PM CDT
Civil Twilight 5:55 AM CDT 7:55 PM CDT
Nautical Twilight 5:21 AM CDT 8:29 PM CDT
Astronomical Twilight 4:45 AM CDT 9:04 PM CDT
Moon 5:15 AM CDT (4/8) 5:59 PM CDT (4/8)
Length of Visible Light 14h 00m
Length of Day
13h 02m
Waning Crescent, 3% of the Moon is Illuminated
Apr 8
Waning Crescent
Apr 10
New
Apr 18
First Quarter
Apr 25
Full
May 2
Last Quarter

Hourly Weather History & Observations

Time (CDT) Temp. Windchill Dew Point Humidity Pressure Visibility Wind Dir Wind Speed Gust Speed Precip Events Conditions
12:52 AM 39.0 °F 34.8 °F 33.1 °F 79% 29.91 in 9.0 mi East 5.8 mph - N/A   Clear
1:52 AM 41.0 °F 37.1 °F 34.0 °F 76% 29.88 in 9.0 mi East 5.8 mph - N/A   Clear
2:52 AM 43.0 °F 39.5 °F 35.1 °F 74% 29.83 in 9.0 mi East 5.8 mph - N/A   Clear
3:52 AM 46.0 °F 42.5 °F 36.0 °F 68% 29.80 in 9.0 mi ESE 6.9 mph - N/A   Partly Cloudy
4:13 AM 46.4 °F 42.9 °F 37.4 °F 71% 29.79 in 9.0 mi ESE 6.9 mph - N/A   Mostly Cloudy
4:38 AM 48.2 °F - 37.4 °F 66% 29.77 in 10.0 mi ESE 10.4 mph - N/A   Mostly Cloudy
4:52 AM 48.9 °F - 37.9 °F 66% 29.77 in 10.0 mi ESE 6.9 mph - N/A   Scattered Clouds
5:05 AM 48.2 °F - 39.2 °F 71% 29.76 in 10.0 mi SE 8.1 mph - N/A   Mostly Cloudy
5:28 AM 46.4 °F 41.1 °F 42.8 °F 87% 29.75 in 4.0 mi SSE 11.5 mph - 0.04 in Rain Rain
5:52 AM 46.9 °F - 44.1 °F 90% 29.74 in 2.5 mi ESE 6.9 mph - 0.16 in Rain Heavy Rain
6:02 AM 46.4 °F 43.5 °F 44.6 °F 93% 29.71 in 2.0 mi ESE 5.8 mph - 0.08 in Rain Heavy Rain
6:10 AM 46.4 °F 42.4 °F 46.4 °F 100% 29.71 in 2.0 mi East 8.1 mph - 0.13 in Rain Heavy Rain
6:17 AM 48.2 °F - 46.4 °F 93% 29.68 in 2.5 mi East 12.7 mph 19.6 mph 0.14 in Rain Rain
6:52 AM 52.0 °F - 51.1 °F 97% 29.64 in 2.5 mi ESE 17.3 mph 23.0 mph 0.21 in Rain Light Rain
6:59 AM 51.8 °F - 51.8 °F 100% 29.64 in 5.0 mi SE 15.0 mph 23.0 mph 0.00 in Rain Light Rain
7:47 AM 53.6 °F - 51.8 °F 94% 29.64 in 5.0 mi SSE 17.3 mph 28.8 mph 0.01 in Rain Light Rain
7:52 AM 54.0 °F - 52.0 °F 93% 29.64 in 4.0 mi SSE 18.4 mph 26.5 mph 0.01 in Rain Light Rain
8:06 AM 55.4 °F - 53.6 °F 94% 29.63 in 7.0 mi SSE 18.4 mph 26.5 mph 0.01 in Rain Light Rain
8:17 AM 55.4 °F - 53.6 °F 94% 29.62 in 8.0 mi SSE 18.4 mph 26.5 mph 0.01 in   Overcast
8:36 AM 55.4 °F - 53.6 °F 94% 29.61 in 8.0 mi South 20.7 mph 28.8 mph 0.01 in   Overcast
8:52 AM 57.0 °F - 54.0 °F 89% 29.59 in 9.0 mi South 20.7 mph 28.8 mph 0.01 in   Overcast
9:52 AM 59.0 °F - 52.0 °F 78% 29.58 in 10.0 mi SW 34.5 mph 50.6 mph 0.00 in   Overcast
10:52 AM 59.0 °F - 52.0 °F 78% 29.65 in 10.0 mi SW 33.4 mph 46.0 mph N/A   Mostly Cloudy
11:26 AM 59.0 °F - 51.8 °F 77% 29.67 in 10.0 mi WSW 24.2 mph 40.3 mph N/A   Mostly Cloudy
11:52 AM 59.0 °F - 51.1 °F 75% 29.70 in 10.0 mi WSW 32.2 mph 41.4 mph N/A   Mostly Cloudy
12:23 PM 57.2 °F - 51.8 °F 82% 29.72 in 10.0 mi West 29.9 mph 36.8 mph N/A   Overcast
12:52 PM 59.0 °F - 51.1 °F 75% 29.74 in 10.0 mi West 25.3 mph 36.8 mph N/A   Mostly Cloudy
1:03 PM 59.0 °F - 51.8 °F 77% 29.74 in 10.0 mi West 26.5 mph 32.2 mph N/A   Mostly Cloudy
1:18 PM 60.8 °F - 51.8 °F 72% 29.75 in 10.0 mi West 19.6 mph 33.4 mph N/A   Scattered Clouds
1:25 PM 60.8 °F - 51.8 °F 72% 29.75 in 10.0 mi West 23.0 mph 33.4 mph N/A   Mostly Cloudy
1:52 PM 62.1 °F - 51.1 °F 67% 29.77 in 10.0 mi West 15.0 mph 31.1 mph N/A   Mostly Cloudy
2:12 PM 62.6 °F - 51.8 °F 68% 29.77 in 10.0 mi West 21.9 mph 27.6 mph N/A   Scattered Clouds
2:28 PM 60.8 °F - 50.0 °F 68% 29.77 in 10.0 mi WNW 19.6 mph 24.2 mph N/A   Mostly Cloudy
2:52 PM 63.0 °F - 50.0 °F 63% 29.78 in 10.0 mi West 15.0 mph 25.3 mph N/A   Mostly Cloudy
3:14 PM 64.4 °F - 50.0 °F 59% 29.77 in 10.0 mi WNW 15.0 mph 21.9 mph N/A   Mostly Cloudy
3:52 PM 66.0 °F - 51.1 °F 59% 29.78 in 10.0 mi West 13.8 mph 21.9 mph N/A   Clear
4:52 PM 64.9 °F - 51.1 °F 61% 29.80 in 10.0 mi West 11.5 mph - N/A   Partly Cloudy
5:52 PM 64.9 °F - 51.1 °F 61% 29.83 in 10.0 mi Variable 3.5 mph - N/A   Partly Cloudy
6:52 PM 62.1 °F - 51.1 °F 67% 29.85 in 10.0 mi NE 5.8 mph - N/A   Clear
7:52 PM 57.9 °F - 50.0 °F 75% 29.87 in 10.0 mi NE 6.9 mph - N/A   Clear
8:52 PM 48.9 °F - 42.1 °F 77% 29.91 in 10.0 mi ENE 12.7 mph - N/A   Clear
9:52 PM 45.0 °F 39.3 °F 39.9 °F 82% 29.94 in 9.0 mi ENE 11.5 mph - N/A   Clear
10:52 PM 44.1 °F 39.5 °F 39.9 °F 85% 29.95 in 8.0 mi East 8.1 mph - N/A   Clear
11:52 PM 44.1 °F 40.8 °F 39.9 °F 85% 29.98 in 6.0 mi East 5.8 mph - N/A   Clear